Temperature
20 20 20 20 17 15 17 19 19 19 19 21 21 21 19 19 19 19 19 19 18 17 16 15 14 14 14 14 13 12 12 11 10 10 9 9 9 8 8 8 8 8 7 7 7 7 7 8 8
20 20 20 20 16 16 17 18 18 19 20 20 21 20 19 19 20 20 20 19 18 17 16 15 15 14 14 14 14 13 12 11 10 10 9 9 9 8 8 8 8 8 8 8 7 7 7 8 8
19 20 20 16 16 16 19 19 18 19 20 20 20 20 20 20 20 20 20 20 18 17 16 15 15 14 14 14 14 14 13 12 11 10 10 9 9 8 8 8 8 8 8 8 8 8 8 8 8
20 20 19 16 18 17 18 19 18 18 19 20 20 19 20 20 20 21 20 20 19 18 16 15 15 14 14 14 14 14 13 12 11 11 10 9 9 9 9 9 9 9 9 9 9 9 8 8 8
20 20 17 16 17 18 18 20 19 17 18 19 19 19 20 21 20 20 20 20 19 18 17 15 15 14 14 14 14 14 13 13 12 11 10 10 9 10 10 10 10 9 9 9 9 9 9 9 9
20 18 16 16 17 18 19 20 19 18 19 19 19 18 20 20 20 20 20 19 19 18 17 16 15 14 14 14 14 13 13 13 12 12 11 10 10 10 10 10 10 10 10 10 9 9 9 9 9
19 15 16 17 17 17 19 20 20 19 19 20 20 18 20 20 20 19 19 18 18 17 17 16 15 14 13 13 13 13 13 13 12 12 11 11 11 11 11 10 10 10 10 10 9 9 9 9 9
20 15 18 17 17 18 20 21 21 21 20 21 21 19 20 21 19 18 17 17 17 16 16 16 15 14 13 13 13 13 13 12 12 12 12 12 11 11 11 11 10 10 10 10 10 9 9 9 9
20 15 16 17 18 18 20 20 21 21 21 20 20 20 21 20 19 18 16 16 16 16 16 15 15 14 13 13 12 12 12 12 12 12 12 12 11 11 11 11 10 10 10 10 10 10 9 9 9
19 15 16 17 18 18 19 19 20 20 19 19 19 20 20 20 19 19 18 17 17 17 17 16 15 14 13 13 12 12 12 12 12 12 12 12 11 11 11 11 10 10 10 10 10 10 10 9 9
18 16 16 18 20 19 19 19 19 18 15 18 19 20 19 19 19 18 18 18 18 18 17 17 15 14 13 13 12 12 12 12 12 12 12 12 11 11 11 11 11 10 10 10 10 10 10 10 9
18 17 18 19 20 19 19 19 18 18 19 20 19 19 19 18 18 19 19 18 18 17 17 17 16 15 14 13 12 12 12 12 12 12 12 12 11 11 11 11 10 10 10 10 10 10 9 9 9
17 17 19 19 19 19 19 18 17 18 21 20 19 18 18 18 19 19 19 18 17 17 17 17 16 15 14 13 13 12 12 12 12 12 12 12 11 11 11 11 10 10 10 10 9 9 9 9 9
18 18 18 19 19 18 17 17 16 19 21 20 20 20 19 19 19 19 18 18 18 17 17 16 16 16 15 14 13 13 13 12 12 12 12 11 11 11 11 11 10 10 10 9 9 9 8 8 8
18 16 15 17 17 17 17 15 15 21 20 20 20 20 19 19 19 19 19 19 19 18 18 17 16 15 15 14 14 13 13 12 12 12 12 11 11 11 11 10 10 10 9 9 9 8 8 8 8
16 15 15 16 17 16 17 15 15 20 19 18 19 19 19 19 19 19 19 19 19 18 18 17 16 15 15 14 14 13 13 12 12 12 11 11 11 11 10 10 10 10 9 9 8 8 8 8 8
15 14 15 16 16 16 16 15 15 18 18 17 18 18 18 19 19 19 19 19 19 19 18 17 16 16 15 14 13 13 12 12 11 11 11 11 10 10 10 10 10 9 9 8 8 8 8 8 8
16 15 15 15 16 16 14 13 15 17 17 16 17 17 18 18 18 19 19 19 19 19 18 17 16 16 15 13 12 11 11 11 10 10 10 10 10 10 9 9 9 9 8 8 8 8 8 8 7
16 15 14 14 15 15 14 14 15 16 16 16 17 17 18 18 18 19 19 19 19 18 18 17 16 16 14 13 13 12 12 11 11 11 10 10 9 9 8 8 8 8 8 8 8 7 7 7 7
15 15 14 14 15 15 14 13 13 14 15 16 17 17 17 17 18 18 19 19 18 18 17 17 16 16 15 14 14 13 12 11 11 10 10 9 9 8 8 8 7 7 7 7 7 7 6 6 6
16 15 14 14 13 13 14 14 14 15 15 16 16 16 16 17 17 17 18 18 17 17 16 16 16 15 15 14 13 12 11 11 10 10 10 10 9 8 8 7 7 7 6 6 6 6 6 6 5
14 15 15 15 13 12 13 13 13 15 15 15 15 16 16 16 16 16 16 16 16 16 16 15 15 14 14 13 13 12 12 11 11 11 10 10 9 8 8 7 7 6 6 6 6 5 5 5 4
15 15 15 14 13 12 12 12 12 14 15 14 14 15 15 15 15 15 15 15 15 15 15 15 14 13 13 12 12 11 11 11 10 10 9 9 9 8 8 7 7 6 6 6 5 5 5 4 4
15 14 13 10 10 12 13 12 13 12 14 14 14 14 15 15 15 15 14 14 14 14 14 14 13 13 12 12 11 11 10 10 10 9 9 9 8 8 7 7 6 6 6 5 5 5 4 4 4
14 13 12 13 12 12 13 13 13 14 14 13 13 14 14 14 14 14 14 13 13 13 13 13 13 12 12 12 11 11 10 10 9 9 9 8 8 8 7 7 6 6 6 5 5 4 4 4 4
14 13 13 13 12 11 12 13 13 13 14 15 15 14 14 14 14 13 13 13 13 13 13 12 12 12 11 11 11 10 10 10 9 9 9 8 8 8 7 7 6 6 5 5 4 4 4 4 3
15 13 12 11 12 11 11 11 13 13 12 12 13 13 14 14 13 13 13 12 12 12 12 12 11 11 11 11 10 10 10 9 9 9 8 8 8 7 7 6 6 5 5 5 4 4 4 3 3
14 12 10 11 12 11 11 11 13 14 13 12 12 13 13 13 13 12 12 12 12 11 11 11 11 10 10 10 10 9 9 9 8 8 8 8 8 7 7 6 6 5 5 5 4 4 3 3 3
12 13 12 10 10 10 10 11 13 14 13 12 12 13 13 13 12 12 12 11 11 11 11 11 10 10 9 9 9 9 8 8 8 8 7 7 7 7 6 6 6 5 5 4 4 4 3 3 3
12 12 11 11 11 9 9 11 13 12 12 13 13 13 13 12 12 11 11 11 11 10 10 10 9 9 9 8 8 8 8 7 7 7 7 6 6 6 6 5 5 5 5 5 4 3 3 3 2
Wind_Speed
6 3 3 4 6 5 3 4 5 5 4 4 5 7 6 5 5 5 2 13 13 19 28 28 28 26 24 22 20 19 18 16 15 14 13 12 12 11 11 11 11 11 11 12 12 13 13 13 13
3 2 5 5 5 1 5 4 7 7 7 5 4 6 4 6 2 4 7 11 18 24 27 27 29 27 25 23 22 20 19 18 16 15 14 13 12 12 11 11 11 10 10 11 11 11 12 12 12
2 2 4 5 4 5 5 5 8 4 5 6 5 4 5 5 6 8 8 15 21 24 25 27 30 28 26 25 23 22 20 19 18 16 15 14 13 12 12 11 10 10 10 10 10 10 10 11 11
3 4 5 4 5 7 7 8 7 5 4 4 7 4 4 4 7 8 10 18 19 19 25 27 30 28 27 26 24 23 21 20 19 17 16 15 14 13 12 11 11 10 9 9 8 9 9 9 9
4 4 3 2 7 7 6 8 9 9 7 6 7 7 5 2 4 9 16 20 21 18 25 26 30 29 27 26 25 24 22 21 20 19 17 16 15 14 13 12 11 10 9 8 8 7 7 7 8
4 5 3 4 8 8 6 5 7 6 5 4 6 5 6 2 6 10 17 18 17 19 24 25 29 29 28 27 25 24 23 22 21 20 19 17 16 15 14 13 12 11 10 9 7 6 6 6 6
4 4 3 5 6 8 6 3 6 6 6 8 8 7 5 4 5 9 12 11 12 18 21 21 25 27 28 27 26 25 24 23 22 21 20 18 18 17 16 14 13 12 11 9 8 6 5 5 4
5 4 2 4 5 8 6 1 3 6 7 4 10 9 8 8 8 9 9 9 10 11 15 18 19 23 24 25 26 26 25 24 23 22 21 19 18 18 17 16 14 13 12 10 9 7 6 5 4
5 4 4 6 6 7 4 3 4 3 3 2 5 5 4 10 13 11 8 7 10 13 11 16 17 19 21 22 24 25 25 24 23 22 21 20 19 18 16 16 16 15 13 12 11 9 8 7 6
5 3 8 6 6 6 5 4 5 4 6 5 5 2 4 11 17 17 15 16 17 19 17 14 17 18 19 21 21 21 22 22 22 21 21 20 17 17 15 17 17 16 15 14 13 11 10 9 7
6 7 7 7 7 6 5 5 4 5 10 11 11 8 8 10 15 18 19 20 21 18 17 17 17 19 19 18 17 16 18 19 20 22 21 19 18 17 16 15 16 16 16 14 12 11 9 9 9
5 8 7 7 4 4 5 5 5 7 14 9 9 7 11 15 18 21 21 20 15 13 18 17 16 17 20 19 17 16 15 16 17 20 22 20 16 15 15 15 16 15 14 14 13 11 11 11 12
6 7 6 7 7 6 6 7 6 11 16 10 8 8 15 18 19 20 18 15 13 15 17 16 16 17 19 18 17 18 17 18 18 20 22 22 17 14 15 15 16 17 16 15 14 13 13 13 13
4 5 8 10 10 6 7 6 4 13 9 8 7 10 15 19 22 17 15 16 18 20 19 17 19 19 18 16 15 16 20 19 20 21 23 24 22 18 15 14 15 17 18 18 17 15 13 12 12
4 7 10 7 4 2 2 7 8 13 8 10 10 9 11 17 17 20 21 22 22 20 18 19 19 17 17 16 17 18 20 21 21 22 24 25 24 21 18 15 14 17 19 18 16 15 13 10 10
4 4 6 8 1 1 2 11 12 10 7 10 10 7 6 9 13 18 18 18 18 16 16 19 18 18 18 16 16 17 19 21 22 23 24 26 26 24 20 15 15 19 18 16 11 8 6 7 7
3 3 6 8 3 3 4 11 12 4 6 8 7 7 5 4 5 9 13 16 16 17 16 18 18 19 19 15 13 15 16 19 21 22 23 25 26 26 22 18 17 18 15 13 11 8 7 8 8
4 5 6 7 6 4 7 14 18 9 4 3 4 6 7 7 7 7 7 10 12 13 14 15 17 16 14 11 8 8 9 11 17 20 22 23 25 25 23 18 16 17 10 9 8 9 8 7 7
5 6 9 9 6 5 9 13 15 8 1 3 3 6 8 8 9 8 6 1 5 8 11 14 16 15 12 9 11 12 14 12 9 14 20 22 23 24 23 16 14 14 11 13 12 9 9 9 4
6 7 8 8 5 4 8 11 9 2 4 5 5 5 6 8 11 11 9 5 1 5 8 11 13 13 14 15 13 8 8 7 8 8 14 20 22 23 23 18 11 12 11 12 12 11 8 7 7
6 7 7 6 9 6 6 9 6 4 3 4 4 3 4 6 8 9 9 7 3 2 6 9 11 13 13 12 7 3 3 2 4 8 9 14 21 23 23 21 17 13 13 14 15 14 13 11 9
6 5 4 3 5 6 4 4 6 2 0 2 2 3 4 5 6 6 8 8 6 4 3 4 6 9 10 10 9 11 11 13 13 12 11 10 17 20 23 21 20 15 14 16 16 15 14 13 12
6 1 2 2 1 4 2 3 8 3 5 5 4 1 1 3 5 6 6 7 7 6 4 2 1 4 7 9 11 11 14 14 10 7 9 11 11 16 20 21 18 16 16 17 16 15 16 15 16
1 5 5 5 4 4 4 5 7 5 8 7 5 4 1 2 4 5 6 6 7 8 7 5 2 2 4 7 9 11 14 14 11 10 11 11 10 11 15 17 17 17 17 18 18 17 18 18 18
5 5 5 5 4 5 4 4 8 7 6 9 9 6 3 1 2 3 5 6 7 8 7 6 5 3 3 5 8 11 14 14 14 14 12 12 10 11 13 15 16 17 17 16 16 17 19 19 18
4 6 5 3 4 6 6 5 7 6 2 7 7 6 3 1 0 1 2 3 4 6 6 6 5 4 4 4 7 8 10 10 11 13 12 13 12 13 12 14 16 18 17 17 17 17 18 17 20
4 4 6 5 2 4 7 8 7 5 6 5 4 4 4 3 2 1 2 3 4 5 4 4 5 5 6 6 6 7 8 9 11 12 11 11 12 11 12 13 15 16 17 18 17 17 19 18 19
3 6 5 4 2 5 7 7 4 3 3 3 5 6 6 4 3 1 2 3 3 4 4 5 5 5 6 6 6 6 7 8 9 9 10 11 12 11 11 12 13 15 15 16 17 17 17 18 18
5 4 5 4 4 5 5 8 5 5 6 6 7 7 6 5 3 2 2 3 4 5 5 5 6 6 6 7 7 7 8 8 8 8 10 10 10 10 11 12 12 13 14 14 15 17 16 18 18
8 8 8 5 5 6 4 8 5 4 4 5 6 5 4 3 2 2 3 4 5 6 6 6 6 7 7 7 7 7 8 8 8 9 10 9 10 10 10 11 11 13 13 13 15 17 17 17 19
Wind_Direction
312 13 67 56 53 46 279 260 179 179 188 185 142 125 143 184 197 224 151 151 148 163 173 175 174 173 172 170 167 165 162 160 156 152 147 141 136 129 123 116 110 104 98 92 88 83 79 77 77
344 55 59 62 85 21 281 259 176 193 186 149 122 119 139 221 204 154 150 170 159 165 173 174 176 175 174 172 170 169 167 165 162 159 154 150 145 140 134 127 119 112 104 98 93 88 83 79 78
336 77 84 78 134 192 229 228 204 213 186 161 148 151 178 213 193 191 190 164 160 168 174 176 178 177 176 175 173 172 171 169 167 164 162 158 154 149 143 137 129 122 114 106 99 94 88 83 81
55 54 61 86 236 231 217 221 209 174 216 199 154 177 228 212 188 187 162 160 162 171 175 179 180 180 179 177 176 175 175 173 172 170 168 165 162 157 152 146 141 135 127 119 111 103 96 89 86
61 78 67 302 265 266 245 217 186 186 200 204 174 188 234 277 167 151 155 164 168 172 176 183 183 183 182 181 180 179 178 178 176 175 174 172 168 165 161 158 153 148 142 135 126 117 108 99 93
57 69 89 265 278 290 282 202 172 202 218 207 183 194 241 331 157 163 162 168 170 171 176 185 186 186 185 184 183 183 182 182 181 180 180 178 175 173 171 168 165 161 156 150 143 134 124 112 103
110 107 190 244 280 297 293 183 186 203 211 210 187 190 263 262 201 155 155 155 164 172 177 188 191 189 190 189 188 187 186 186 185 185 184 183 182 181 179 177 175 173 169 165 162 157 149 137 123
124 109 237 261 270 280 291 264 225 205 229 207 158 179 235 217 159 133 133 145 161 174 183 191 194 190 191 192 193 191 191 191 190 190 189 188 188 188 187 185 184 183 181 179 179 179 179 173 161
87 90 237 243 242 263 279 287 283 296 251 240 195 211 251 142 136 135 143 162 176 187 192 192 195 192 191 192 196 195 195 195 194 194 193 193 193 193 193 187 192 192 192 192 193 196 198 198 197
96 174 233 227 219 245 264 244 262 277 263 259 257 309 96 142 158 169 179 185 190 194 195 195 195 192 189 194 199 198 197 197 196 195 194 192 190 193 193 193 200 202 201 202 204 207 209 208 211
169 202 233 245 243 235 252 259 252 241 258 232 228 211 161 168 177 187 193 195 198 195 193 197 196 193 190 194 196 196 195 195 194 193 191 187 187 192 199 201 209 210 208 207 212 217 213 213 217
222 241 235 251 249 231 240 254 266 236 244 235 226 188 174 184 192 198 201 204 199 192 198 197 195 194 195 195 196 195 194 194 192 192 190 184 186 195 202 207 213 211 205 203 211 219 223 227 229
242 258 269 270 277 255 249 248 260 263 261 271 254 184 189 197 205 210 210 208 200 201 200 197 194 196 196 196 198 200 200 199 196 194 194 192 192 199 205 211 213 212 208 206 211 220 227 232 235
262 281 293 283 272 247 235 263 229 268 282 298 267 222 207 208 212 212 213 213 209 210 205 197 198 198 196 199 202 204 204 202 198 199 201 199 200 202 203 210 213 214 212 212 214 218 223 230 233
314 323 317 297 281 259 186 285 237 253 307 305 292 268 232 222 218 216 215 215 213 212 206 200 200 198 199 201 203 205 204 203 205 206 205 205 206 205 205 209 214 216 216 216 217 222 225 230 232
2 360 313 298 276 211 204 271 259 272 301 299 304 305 281 243 226 227 224 222 218 213 207 205 202 199 202 204 203 206 204 205 210 210 209 210 211 209 208 212 216 215 213 211 212 213 216 227 227
13 302 277 295 265 200 227 265 277 298 285 294 315 332 339 330 283 246 233 227 220 213 207 203 203 202 203 202 202 203 203 208 211 211 212 212 213 211 211 216 217 211 209 212 217 213 209 221 228
257 268 270 273 285 235 247 264 285 301 267 278 334 4 15 9 331 299 259 233 219 210 205 204 204 206 199 192 191 196 205 211 212 213 215 212 212 212 213 217 215 207 208 215 216 219 214 219 222
237 250 271 268 277 288 266 277 290 303 98 102 62 31 23 6 342 350 352 263 195 197 199 202 203 204 192 191 198 204 215 214 213 216 214 212 212 210 212 219 212 208 216 220 216 218 221 227 194
237 269 280 292 326 302 289 293 301 315 143 134 106 61 34 16 8 6 12 28 159 202 206 206 206 201 199 205 207 207 213 216 216 217 217 214 214 213 215 217 216 211 218 222 217 212 221 221 189
260 247 261 285 326 345 349 335 351 17 69 85 76 57 36 34 19 6 7 13 9 255 223 216 211 205 205 203 191 186 180 236 216 219 222 217 215 216 219 220 220 216 216 225 222 214 216 226 211
266 254 242 303 359 313 21 311 290 279 170 124 81 39 34 27 22 14 9 7 356 320 274 235 218 209 204 192 192 198 211 224 226 226 225 219 216 219 220 222 221 221 221 226 224 219 218 219 227
233 296 275 268 124 317 305 205 282 261 219 216 211 207 47 28 23 16 7 3 2 359 2 337 242 218 203 197 203 210 226 235 239 230 230 228 224 223 223 223 223 225 226 227 225 221 218 220 227
47 34 43 50 66 316 247 182 277 224 210 198 201 208 175 39 25 17 9 13 10 11 20 25 16 283 221 209 214 220 232 239 244 240 237 237 235 231 227 225 226 228 229 229 227 225 223 224 226
72 62 7 348 0 267 279 226 254 254 216 177 176 183 187 146 46 20 21 17 11 13 15 16 11 328 275 230 228 230 236 241 244 247 246 245 245 241 234 229 231 232 232 231 228 227 228 227 227
183 140 159 241 261 291 316 256 267 309 106 126 143 160 174 180 281 352 6 9 1 10 13 8 358 329 304 263 250 245 244 245 251 251 249 249 251 249 240 232 234 235 234 233 229 231 231 231 231
164 178 173 148 269 276 286 293 313 38 80 108 136 160 192 213 236 273 339 348 349 355 352 342 335 322 310 290 273 265 255 248 253 257 255 256 256 256 246 238 239 239 236 234 232 234 233 232 233
148 145 107 140 234 274 291 286 242 199 190 182 194 208 218 225 236 251 324 335 336 334 329 330 319 306 301 300 287 278 272 262 260 265 264 262 262 260 256 249 245 244 241 238 235 238 236 234 235
159 178 164 154 168 185 266 273 232 199 189 189 213 219 217 220 232 264 306 320 327 332 334 332 327 316 309 303 294 290 288 284 280 272 270 269 270 267 262 257 252 249 247 242 239 240 237 237 238
185 189 157 170 226 197 210 267 265 170 172 179 207 224 231 237 246 270 305 326 333 331 327 324 319 314 306 303 300 294 292 293 289 282 278 276 275 272 267 264 260 256 252 245 241 243 241 239 240
Height
1549 1550 1552 1553 1556 1566 1565 1557 1552 1551 1550 1548 1548 1549 1551 1553 1555 1558 1552 1550 1551 1553 1555 1558 1561 1563 1565 1567 1568 1569 1569 1570 1570 1570 1570 1570 1570 1570 1569 1569 1568 1568 1567 1567 1566 1565 1564 1563 1562
1549 1550 1552 1552 1562 1573 1567 1554 1551 1547 1545 1546 1546 1547 1549 1549 1549 1549 1548 1548 1550 1552 1554 1556 1559 1561 1564 1565 1566 1567 1568 1568 1569 1569 1569 1569 1569 1569 1569 1569 1568 1568 1567 1566 1566 1565 1564 1563 1562
1549 1550 1552 1554 1563 1569 1560 1551 1548 1544 1544 1544 1545 1546 1547 1546 1546 1546 1547 1547 1548 1550 1552 1554 1557 1559 1561 1563 1565 1566 1566 1567 1568 1568 1568 1569 1569 1569 1569 1568 1568 1567 1567 1566 1566 1565 1564 1564 1563
1549 1551 1552 1558 1560 1556 1551 1546 1545 1545 1545 1544 1543 1545 1544 1544 1544 1544 1544 1545 1546 1548 1550 1552 1555 1557 1559 1561 1563 1564 1565 1566 1566 1567 1567 1568 1568 1568 1568 1568 1568 1567 1567 1567 1566 1565 1565 1564 1563
1549 1550 1555 1560 1557 1549 1544 1542 1542 1543 1542 1541 1542 1541 1541 1541 1541 1541 1542 1544 1545 1546 1548 1550 1553 1555 1557 1559 1561 1562 1563 1564 1565 1565 1566 1567 1567 1567 1567 1567 1567 1567 1567 1567 1566 1566 1565 1564 1564
1550 1550 1562 1564 1556 1547 1542 1539 1541 1541 1540 1540 1541 1540 1538 1537 1538 1539 1541 1542 1544 1545 1546 1548 1550 1553 1555 1557 1558 1560 1561 1562 1563 1564 1565 1565 1566 1566 1566 1566 1566 1566 1566 1566 1566 1566 1565 1564 1564
1550 1554 1560 1558 1556 1550 1542 1540 1540 1539 1539 1538 1537 1537 1534 1534 1535 1537 1538 1540 1542 1543 1545 1546 1548 1550 1552 1554 1556 1558 1559 1560 1561 1562 1563 1564 1564 1565 1565 1565 1565 1566 1566 1565 1565 1565 1565 1564 1564
1548 1552 1554 1556 1554 1549 1541 1540 1539 1538 1536 1535 1535 1534 1532 1532 1532 1534 1536 1538 1539 1541 1542 1544 1545 1547 1549 1551 1553 1555 1557 1558 1559 1560 1561 1562 1563 1563 1564 1564 1564 1564 1564 1564 1564 1564 1564 1564 1563
1548 1556 1559 1554 1550 1545 1540 1539 1538 1536 1535 1533 1531 1530 1529 1529 1530 1531 1533 1534 1536 1537 1539 1541 1542 1544 1546 1548 1550 1552 1554 1555 1557 1558 1559 1560 1561 1562 1562 1563 1563 1563 1563 1563 1563 1563 1563 1563 1563
1547 1557 1552 1545 1543 1541 1539 1537 1536 1534 1532 1530 1528 1527 1526 1526 1526 1527 1527 1529 1530 1531 1534 1536 1538 1540 1542 1545 1547 1548 1550 1552 1553 1555 1556 1557 1559 1560 1560 1561 1561 1561 1561 1561 1561 1561 1561 1561 1561
1545 1548 1543 1540 1539 1538 1537 1535 1533 1532 1529 1525 1524 1523 1522 1522 1523 1523 1524 1525 1526 1528 1530 1532 1534 1536 1539 1541 1543 1544 1546 1548 1550 1551 1553 1555 1556 1557 1557 1558 1559 1559 1559 1559 1559 1559 1559 1559 1559
1543 1540 1538 1536 1536 1535 1533 1531 1530 1527 1522 1521 1521 1521 1519 1519 1518 1519 1520 1521 1522 1523 1525 1527 1530 1532 1534 1536 1538 1540 1542 1543 1545 1547 1549 1551 1552 1553 1554 1555 1556 1557 1557 1557 1557 1557 1557 1557 1557
1540 1537 1535 1534 1533 1532 1531 1528 1527 1521 1517 1517 1517 1516 1515 1514 1514 1514 1516 1517 1518 1519 1521 1522 1525 1527 1529 1532 1534 1535 1537 1539 1541 1544 1545 1547 1549 1550 1551 1552 1553 1554 1554 1554 1554 1554 1554 1554 1554
1537 1536 1533 1530 1528 1527 1527 1525 1525 1516 1515 1514 1513 1512 1510 1509 1509 1510 1511 1511 1512 1513 1515 1517 1519 1522 1524 1526 1528 1530 1532 1534 1537 1538 1541 1543 1545 1546 1547 1548 1549 1550 1551 1551 1551 1551 1551 1551 1550
1537 1536 1532 1527 1524 1524 1525 1525 1520 1513 1513 1511 1509 1508 1506 1505 1505 1505 1505 1505 1507 1508 1510 1512 1514 1517 1519 1520 1523 1525 1527 1529 1531 1533 1536 1538 1540 1541 1543 1543 1544 1546 1547 1547 1547 1547 1547 1546 1546
1537 1540 1540 1529 1524 1524 1528 1528 1514 1513 1512 1509 1506 1504 1502 1500 1500 1500 1501 1501 1503 1504 1506 1508 1510 1511 1513 1515 1517 1520 1522 1524 1525 1528 1530 1532 1534 1536 1537 1538 1539 1541 1542 1542 1542 1543 1542 1541 1541
1542 1546 1542 1533 1524 1525 1526 1523 1509 1511 1510 1507 1504 1502 1499 1498 1497 1497 1496 1497 1498 1499 1501 1503 1505 1506 1508 1511 1513 1515 1517 1518 1520 1522 1523 1525 1528 1530 1531 1532 1534 1536 1536 1536 1537 1536 1536 1536 1536
1543 1543 1540 1537 1526 1524 1526 1520 1508 1507 1507 1506 1504 1502 1499 1498 1496 1495 1494 1493 1494 1495 1497 1499 1501 1503 1505 1508 1510 1511 1512 1512 1514 1515 1516 1518 1520 1523 1524 1525 1527 1529 1529 1529 1530 1529 1530 1530 1530
1537 1539 1540 1533 1524 1523 1522 1517 1508 1505 1505 1505 1504 1502 1501 1499 1498 1495 1493 1492 1492 1492 1494 1495 1497 1499 1501 1502 1504 1505 1505 1506 1507 1508 1510 1512 1513 1515 1516 1518 1519 1520 1521 1521 1522 1523 1522 1522 1523
1535 1537 1537 1529 1523 1523 1521 1517 1508 1503 1504 1504 1505 1504 1502 1501 1498 1496 1494 1493 1492 1492 1492 1493 1494 1495 1497 1498 1499 1500 1502 1502 1503 1504 1505 1505 1506 1507 1508 1509 1510 1511 1512 1513 1513 1514 1514 1514 1515
1533 1535 1533 1531 1527 1523 1523 1519 1511 1507 1506 1506 1506 1505 1504 1502 1500 1498 1496 1494 1493 1492 1491 1491 1491 1492 1494 1495 1496 1496 1497 1497 1497 1497 1498 1499 1499 1500 1500 1500 1501 1502 1502 1502 1503 1504 1505 1504 1505
1535 1527 1528 1528 1533 1536 1531 1536 1519 1511 1509 1508 1507 1506 1505 1503 1501 1499 1497 1495 1493 1492 1491 1490 1490 1490 1491 1492 1492 1492 1491 1490 1490 1491 1491 1492 1492 1492 1492 1492 1492 1492 1492 1491 1492 1493 1493 1494 1493
1527 1525 1527 1527 1531 1537 1534 1536 1525 1513 1511 1509 1507 1506 1505 1504 1503 1500 1498 1496 1494 1492 1490 1489 1488 1488 1488 1488 1489 1488 1487 1486 1486 1485 1484 1484 1484 1484 1483 1483 1482 1482 1481 1480 1481 1482 1482 1481 1481
1524 1527 1530 1536 1540 1541 1530 1536 1526 1515 1507 1506 1506 1506 1506 1505 1503 1502 1500 1498 1495 1493 1491 1489 1488 1487 1487 1486 1486 1485 1483 1482 1481 1479 1478 1477 1476 1475 1474 1474 1473 1472 1471 1470 1470 1470 1470 1470 1469
1527 1536 1544 1540 1545 1539 1528 1529 1521 1503 1499 1500 1503 1505 1506 1505 1504 1502 1500 1498 1496 1494 1492 1491 1489 1488 1486 1485 1484 1482 1480 1478 1476 1474 1472 1470 1468 1466 1465 1465 1463 1462 1461 1460 1460 1459 1457 1458 1457
1527 1534 1545 1547 1550 1543 1529 1526 1512 1502 1497 1499 1503 1505 1505 1505 1504 1502 1501 1499 1497 1495 1493 1491 1490 1488 1486 1484 1482 1480 1478 1475 1472 1469 1467 1464 1461 1458 1457 1456 1453 1452 1451 1450 1449 1447 1446 1446 1444
1526 1532 1533 1543 1544 1546 1537 1525 1510 1502 1502 1503 1504 1505 1505 1504 1503 1502 1501 1499 1497 1495 1493 1491 1489 1487 1485 1482 1480 1477 1475 1471 1468 1465 1461 1458 1455 1452 1449 1447 1444 1442 1441 1439 1438 1436 1434 1434 1432
1523 1528 1538 1541 1546 1550 1541 1530 1517 1507 1506 1505 1505 1504 1503 1503 1502 1501 1500 1499 1497 1495 1493 1490 1488 1485 1482 1479 1476 1474 1470 1467 1463 1460 1456 1452 1449 1445 1442 1439 1436 1433 1431 1429 1428 1425 1423 1422 1420
1527 1528 1530 1539 1544 1549 1548 1532 1506 1503 1502 1503 1503 1502 1502 1502 1501 1501 1499 1498 1496 1494 1491 1488 1485 1482 1479 1475 1472 1468 1465 1461 1458 1454 1450 1446 1442 1438 1434 1430 1427 1424 1421 1419 1417 1414 1413 1411 1409
1520 1522 1529 1537 1538 1541 1545 1529 1499 1500 1500 1500 1500 1500 1500 1501 1500 1499 1498 1496 1494 1491 1488 1485 1482 1478 1475 1471 1467 1463 1459 1455 1451 1447 1443 1438 1434 1430 1426 1422 1418 1415 1412 1409 1406 1403 1402 1400 1398